Location: Maiden
(35.5760°N, 81.2120°W)
Time: 02:20:39
(UTC-04:00)

A-11 Canister half - Pass Details

Date: 07 August 2020
Orbit: 1527 x 1682 km, 47.3° (Epoch: 25 September)

Event Time Altitude Azimuth Distance (km) Brightness Sun altitude
Rises 11:40:06 0° 197° (SSW) 4,868 11.7 58.7°
Reaches altitude 10° 11:43:39 10° 188° (S) 3,901 11.4 59.3°
Maximum altitude 11:52:12 33° 128° (SE) 2,551 11.5 60.7°
Drops below altitude 10° 12:00:48 10° 70° (ENE) 3,944 11.5 62.1°
Sets 12:04:23 0° 61° (ENE) 4,929 11.8 62.7°
